Powrót do katalogu

YUNYAO-1 17

AktywnyPogodaPO
NORAD 60747·PAYLOAD·🇨🇳 China
Ta nazwa satelity nie została jeszcze potwierdzona przez oficjalne źródła.

Wystrzelony Aug 29, 2024 z Yellow Sea Launch Area

Loading…

Następne Przeloty (najbliższe 24 godziny)

TLE

ŚwieżeSource: Space-Track

Epoka: Sep 14, 2026, 14:56 UTC

1 60747U 24153C   26257.62243991  .00028131  00000-0  58224-3 0  9996
2 60747  97.6886  44.9707 0007813 184.0371 176.0816 15.45720595113944

Śledź YUNYAO-1 17 w czasie rzeczywistym z AllMySat

Download on the App Store